Time,TemperatureF,DewpointF,PressureIn,WindDirection,WindDirectionDegrees,WindSpeedMPH,WindSpeedGustMPH,Humidity,HourlyPrecipIn,Conditions,Clouds,dailyrainin,SoftwareType,DateUTC
2013-05-01 00:02:00,64.0,49.0,29.84,SE,144,0.0,3.0,58,0.00,,,0.00,,2013-05-01 05:02:00,
2013-05-01 00:11:00,64.0,49.0,29.84,SE,144,0.0,3.0,58,0.00,,,0.00,,2013-05-01 05:11:00,
2013-05-01 00:21:00,64.0,49.0,29.84,SE,144,0.0,1.0,59,0.00,,,0.00,,2013-05-01 05:21:00,
2013-05-01 00:32:00,64.0,50.0,29.84,SE,144,0.0,1.0,60,0.00,,,0.00,,2013-05-01 05:32:00,
2013-05-01 00:41:00,64.0,50.0,29.84,SE,144,0.0,1.0,60,0.00,,,0.00,,2013-05-01 05:41:00,
2013-05-01 00:52:00,63.0,49.0,29.84,SSE,148,0.0,4.0,60,0.00,,,0.00,,2013-05-01 05:52:00,
2013-05-01 01:02:00,64.0,49.0,29.84,ESE,108,2.0,8.0,59,0.00,,,0.00,,2013-05-01 06:02:00,
2013-05-01 01:11:00,64.0,49.0,29.84,ESE,108,2.0,8.0,59,0.00,,,0.00,,2013-05-01 06:11:00,
2013-05-01 01:22:00,64.0,49.0,29.85,SSE,157,1.0,7.0,59,0.00,,,0.00,,2013-05-01 06:22:00,
2013-05-01 01:32:00,64.0,50.0,29.85,SE,145,0.0,8.0,60,0.00,,,0.00,,2013-05-01 06:32:00,
2013-05-01 01:42:00,64.0,50.0,29.85,SE,145,0.0,8.0,60,0.00,,,0.00,,2013-05-01 06:42:00,
2013-05-01 01:51:00,63.0,49.0,29.85,SE,142,0.0,6.0,61,0.00,,,0.00,,2013-05-01 06:51:00,
2013-05-01 02:01:00,63.0,50.0,29.86,SE,134,1.0,6.0,62,0.00,,,0.00,,2013-05-01 07:01:00,
2013-05-01 02:11:00,63.0,50.0,29.86,SE,134,1.0,6.0,62,0.00,,,0.00,,2013-05-01 07:11:00,
2013-05-01 02:21:00,63.0,50.0,29.86,SSE,155,0.0,5.0,63,0.00,,,0.00,,2013-05-01 07:21:00,
2013-05-01 02:32:00,62.0,50.0,29.86,South,171,0.0,4.0,64,0.00,,,0.00,,2013-05-01 07:32:00,
2013-05-01 02:42:00,62.0,50.0,29.86,South,171,0.0,4.0,64,0.00,,,0.00,,2013-05-01 07:42:00,
2013-05-01 02:52:00,61.0,49.0,29.87,South,171,0.0,3.0,65,0.00,,,0.00,,2013-05-01 07:52:00,
2013-05-01 03:02:00,61.0,50.0,29.87,SSE,167,0.0,6.0,66,0.00,,,0.00,,2013-05-01 08:02:00,
2013-05-01 03:11:00,61.0,50.0,29.87,SSE,167,0.0,6.0,66,0.00,,,0.00,,2013-05-01 08:11:00,
2013-05-01 03:21:00,61.0,50.0,29.87,SSE,167,0.0,3.0,66,0.00,,,0.00,,2013-05-01 08:21:00,
2013-05-01 03:32:00,61.0,49.0,29.88,SSE,167,0.0,2.0,65,0.00,,,0.00,,2013-05-01 08:32:00,
2013-05-01 03:42:00,61.0,49.0,29.88,SSE,167,0.0,2.0,65,0.00,,,0.00,,2013-05-01 08:42:00,
2013-05-01 03:53:00,61.0,49.0,29.89,SSE,167,0.0,3.0,65,0.00,,,0.00,,2013-05-01 08:53:00,
2013-05-01 04:01:00,60.0,49.0,29.89,SE,130,1.0,5.0,66,0.00,,,0.00,,2013-05-01 09:01:00,
2013-05-01 04:11:00,60.0,49.0,29.89,SE,130,1.0,5.0,66,0.00,,,0.00,,2013-05-01 09:11:00,
2013-05-01 04:21:00,61.0,49.0,29.90,SE,145,1.0,6.0,65,0.00,,,0.00,,2013-05-01 09:21:00,
2013-05-01 04:33:00,60.0,49.0,29.91,SE,145,0.0,4.0,66,0.00,,,0.00,,2013-05-01 09:33:00,
2013-05-01 04:42:00,60.0,49.0,29.91,SE,145,0.0,4.0,66,0.00,,,0.00,,2013-05-01 09:42:00,
2013-05-01 04:52:00,60.0,49.0,29.91,ESE,123,0.0,3.0,66,0.00,,,0.00,,2013-05-01 09:52:00,
2013-05-01 05:02:00,60.0,49.0,29.91,SE,124,0.0,5.0,66,0.00,,,0.00,,2013-05-01 10:02:00,
2013-05-01 05:12:00,60.0,49.0,29.91,SE,124,0.0,5.0,66,0.00,,,0.00,,2013-05-01 10:12:00,
2013-05-01 05:22:00,60.0,49.0,29.92,SE,134,0.0,4.0,66,0.00,,,0.00,,2013-05-01 10:22:00,
2013-05-01 05:33:00,60.0,49.0,29.92,SE,133,1.0,5.0,66,0.00,,,0.00,,2013-05-01 10:33:00,
2013-05-01 05:42:00,60.0,49.0,29.92,SE,133,1.0,5.0,66,0.00,,,0.00,,2013-05-01 10:42:00,
2013-05-01 05:52:00,61.0,50.0,29.93,SE,133,2.0,6.0,66,0.00,,,0.00,,2013-05-01 10:52:00,
2013-05-01 06:02:00,61.0,50.0,29.93,SE,145,0.0,5.0,67,0.00,,,0.00,,2013-05-01 11:02:00,
2013-05-01 06:11:00,61.0,50.0,29.93,SE,145,0.0,5.0,67,0.00,,,0.00,,2013-05-01 11:11:00,
2013-05-01 06:22:00,60.0,49.0,29.94,SE,145,0.0,4.0,67,0.00,,,0.00,,2013-05-01 11:22:00,
2013-05-01 06:32:00,60.0,49.0,29.95,SE,145,0.0,4.0,67,0.00,,,0.00,,2013-05-01 11:32:00,
2013-05-01 06:42:00,60.0,49.0,29.95,SE,145,0.0,4.0,67,0.00,,,0.00,,2013-05-01 11:42:00,
2013-05-01 06:51:00,60.0,49.0,29.96,SE,145,0.0,5.0,68,0.00,,,0.00,,2013-05-01 11:51:00,
2013-05-01 07:01:00,60.0,50.0,29.96,SE,145,0.0,4.0,69,0.00,,,0.00,,2013-05-01 12:01:00,
2013-05-01 07:11:00,60.0,50.0,29.97,SE,142,1.0,4.0,69,0.00,,,0.00,,2013-05-01 12:11:00,
2013-05-01 07:21:00,60.0,50.0,29.97,SE,142,1.0,4.0,69,0.00,,,0.00,,2013-05-01 12:21:00,
2013-05-01 07:31:00,60.0,50.0,29.97,SE,139,0.0,6.0,69,0.00,,,0.00,,2013-05-01 12:31:00,
2013-05-01 07:41:00,60.0,50.0,29.97,SE,139,0.0,6.0,69,0.00,,,0.00,,2013-05-01 12:41:00,
2013-05-01 07:51:00,61.0,51.0,29.97,SE,138,2.0,7.0,69,0.00,,,0.00,,2013-05-01 12:51:00,
2013-05-01 08:01:00,62.0,51.0,29.97,SE,140,2.0,7.0,68,0.00,,,0.00,,2013-05-01 13:01:00,
2013-05-01 08:11:00,62.0,51.0,29.97,SE,140,2.0,7.0,68,0.00,,,0.00,,2013-05-01 13:11:00,
2013-05-01 08:21:00,62.0,51.0,29.97,ESE,119,2.0,8.0,67,0.00,,,0.00,,2013-05-01 13:21:00,
2013-05-01 08:32:00,63.0,51.0,29.98,SSE,167,4.0,9.0,66,0.00,,,0.00,,2013-05-01 13:32:00,
2013-05-01 08:42:00,63.0,51.0,29.98,SSE,167,4.0,9.0,66,0.00,,,0.00,,2013-05-01 13:42:00,
2013-05-01 08:52:00,64.0,52.0,29.98,SE,144,1.0,10.0,66,0.00,,,0.00,,2013-05-01 13:52:00,
2013-05-01 09:02:00,66.0,53.0,29.98,SE,138,2.0,6.0,64,0.00,,,0.00,,2013-05-01 14:02:00,
2013-05-01 09:11:00,66.0,53.0,29.98,SE,138,2.0,6.0,64,0.00,,,0.00,,2013-05-01 14:11:00,
2013-05-01 09:21:00,67.0,54.0,29.99,SE,132,3.0,8.0,63,0.00,,,0.00,,2013-05-01 14:21:00,
2013-05-01 09:32:00,68.0,54.0,29.98,SE,146,2.0,7.0,62,0.00,,,0.00,,2013-05-01 14:32:00,
2013-05-01 09:42:00,68.0,54.0,29.98,SE,146,2.0,7.0,62,0.00,,,0.00,,2013-05-01 14:42:00,
2013-05-01 09:51:00,69.0,55.0,29.98,SSE,148,2.0,10.0,62,0.00,,,0.00,,2013-05-01 14:51:00,
2013-05-01 10:01:00,70.0,56.0,29.99,South,181,1.0,7.0,62,0.00,,,0.00,,2013-05-01 15:01:00,
2013-05-01 10:11:00,70.0,56.0,29.99,South,181,1.0,7.0,62,0.00,,,0.00,,2013-05-01 15:11:00,
2013-05-01 10:21:00,71.0,57.0,30.00,SSW,196,1.0,5.0,61,0.00,,,0.00,,2013-05-01 15:21:00,
2013-05-01 10:33:00,73.0,59.0,30.00,SW,227,0.0,6.0,61,0.00,,,0.00,,2013-05-01 15:33:00,
2013-05-01 10:43:00,73.0,59.0,30.00,SW,227,0.0,6.0,61,0.00,,,0.00,,2013-05-01 15:43:00,
2013-05-01 10:53:00,74.0,59.0,30.01,SSW,195,0.0,3.0,59,0.00,,,0.00,,2013-05-01 15:53:00,
2013-05-01 11:03:00,75.0,59.0,30.01,WSW,237,0.0,4.0,58,0.00,,,0.00,,2013-05-01 16:03:00,
2013-05-01 11:12:00,75.0,59.0,30.01,WSW,237,0.0,4.0,58,0.00,,,0.00,,2013-05-01 16:12:00,
2013-05-01 11:22:00,74.0,59.0,30.02,SSW,199,0.0,5.0,60,0.00,,,0.00,,2013-05-01 16:22:00,
2013-05-01 11:32:00,74.0,59.0,30.01,SE,141,1.0,6.0,60,0.00,,,0.00,,2013-05-01 16:32:00,
2013-05-01 11:42:00,74.0,59.0,30.01,SE,141,1.0,6.0,60,0.00,,,0.00,,2013-05-01 16:42:00,
2013-05-01 11:53:00,74.0,60.0,30.02,SSE,148,1.0,5.0,61,0.00,,,0.00,,2013-05-01 16:53:00,
2013-05-01 12:02:00,76.0,59.0,30.02,SE,136,2.0,8.0,56,0.00,,,0.00,,2013-05-01 17:02:00,
2013-05-01 12:12:00,76.0,59.0,30.02,SE,136,2.0,8.0,56,0.00,,,0.00,,2013-05-01 17:12:00,
2013-05-01 12:21:00,76.0,59.0,30.01,East,90,1.0,9.0,55,0.00,,,0.00,,2013-05-01 17:21:00,
2013-05-01 12:32:00,77.0,60.0,30.01,SE,134,0.0,7.0,55,0.00,,,0.00,,2013-05-01 17:32:00,
2013-05-01 12:42:00,77.0,60.0,30.01,SE,134,0.0,7.0,55,0.00,,,0.00,,2013-05-01 17:42:00,
2013-05-01 12:52:00,77.0,59.0,30.01,ESE,119,1.0,8.0,53,0.00,,,0.00,,2013-05-01 17:52:00,
2013-05-01 13:01:00,77.0,60.0,30.00,ESE,106,4.0,9.0,55,0.00,,,0.00,,2013-05-01 18:01:00,
2013-05-01 13:11:00,77.0,60.0,30.00,ESE,106,4.0,9.0,55,0.00,,,0.00,,2013-05-01 18:11:00,
2013-05-01 13:22:00,77.0,59.0,30.00,ESE,120,3.0,7.0,53,0.00,,,0.00,,2013-05-01 18:22:00,
2013-05-01 13:32:00,78.0,61.0,29.99,NE,55,1.0,7.0,55,0.00,,,0.00,,2013-05-01 18:32:00,
2013-05-01 13:41:00,78.0,61.0,29.99,NE,55,1.0,7.0,55,0.00,,,0.00,,2013-05-01 18:41:00,
2013-05-01 13:52:00,79.0,59.0,29.99,SSE,157,1.0,6.0,51,0.00,,,0.00,,2013-05-01 18:52:00,
2013-05-01 14:02:00,79.0,59.0,29.98,ENE,67,2.0,10.0,51,0.00,,,0.00,,2013-05-01 19:02:00,
2013-05-01 14:11:00,79.0,59.0,29.98,ENE,67,2.0,10.0,51,0.00,,,0.00,,2013-05-01 19:11:00,
2013-05-01 14:22:00,79.0,59.0,29.98,SE,131,2.0,11.0,50,0.00,,,0.00,,2013-05-01 19:22:00,
2013-05-01 14:32:00,77.0,57.0,29.98,ENE,73,0.0,12.0,51,0.00,,,0.00,,2013-05-01 19:32:00,
2013-05-01 14:42:00,77.0,57.0,29.98,ENE,73,0.0,12.0,51,0.00,,,0.00,,2013-05-01 19:42:00,
2013-05-01 14:52:00,78.0,58.0,29.99,ESE,117,5.0,13.0,50,0.00,,,0.00,,2013-05-01 19:52:00,
2013-05-01 15:01:00,79.0,58.0,29.99,SSE,156,3.0,11.0,48,0.00,,,0.00,,2013-05-01 20:01:00,
2013-05-01 15:11:00,79.0,58.0,29.99,SSE,156,3.0,11.0,48,0.00,,,0.00,,2013-05-01 20:11:00,
2013-05-01 15:21:00,79.0,56.0,29.99,East,96,7.0,11.0,46,0.00,,,0.00,,2013-05-01 20:21:00,
2013-05-01 15:32:00,80.0,59.0,29.99,ESE,115,4.0,9.0,48,0.00,,,0.00,,2013-05-01 20:32:00,
2013-05-01 15:42:00,80.0,59.0,29.99,ESE,115,4.0,9.0,48,0.00,,,0.00,,2013-05-01 20:42:00,
2013-05-01 15:52:00,79.0,57.0,29.99,SE,132,6.0,12.0,47,0.00,,,0.00,,2013-05-01 20:52:00,
2013-05-01 16:01:00,80.0,58.0,29.99,SSE,157,1.0,9.0,47,0.00,,,0.00,,2013-05-01 21:01:00,
2013-05-01 16:11:00,80.0,58.0,29.99,SSE,157,1.0,9.0,47,0.00,,,0.00,,2013-05-01 21:11:00,
2013-05-01 16:22:00,79.0,57.0,29.99,SE,138,4.0,11.0,47,0.00,,,0.00,,2013-05-01 21:22:00,
2013-05-01 16:32:00,78.0,57.0,29.99,ESE,123,1.0,8.0,49,0.00,,,0.00,,2013-05-01 21:32:00,
2013-05-01 16:43:00,78.0,57.0,29.99,ESE,123,1.0,8.0,49,0.00,,,0.00,,2013-05-01 21:43:00,
2013-05-01 16:53:00,77.0,56.0,30.01,North,355,3.0,10.0,49,0.00,,,0.00,,2013-05-01 21:53:00,
2013-05-01 17:03:00,72.0,55.0,30.01,NNE,13,1.0,12.0,55,0.00,,,0.00,,2013-05-01 22:03:00,
2013-05-01 17:12:00,72.0,55.0,30.01,NNE,13,1.0,12.0,55,0.00,,,0.00,,2013-05-01 22:12:00,
2013-05-01 17:23:00,71.0,54.0,30.00,NW,315,4.0,16.0,56,0.00,,,0.00,,2013-05-01 22:23:00,
2013-05-01 17:33:00,70.0,54.0,30.01,North,11,5.0,15.0,57,0.00,,,0.00,,2013-05-01 22:33:00,
2013-05-01 17:42:00,70.0,54.0,30.01,North,11,5.0,15.0,57,0.00,,,0.00,,2013-05-01 22:42:00,
2013-05-01 17:52:00,70.0,54.0,30.01,NNW,344,7.0,13.0,56,0.00,,,0.00,,2013-05-01 22:52:00,
2013-05-01 18:02:00,69.0,53.0,30.01,North,355,7.0,18.0,57,0.00,,,0.00,,2013-05-01 23:02:00,
2013-05-01 18:12:00,69.0,53.0,30.01,North,355,7.0,18.0,57,0.00,,,0.00,,2013-05-01 23:12:00,
2013-05-01 18:21:00,69.0,54.0,30.02,North,5,5.0,14.0,58,0.00,,,0.00,,2013-05-01 23:21:00,
2013-05-01 18:32:00,67.0,52.0,30.03,North,355,5.0,20.0,58,0.00,,,0.00,,2013-05-01 23:32:00,
2013-05-01 18:42:00,67.0,52.0,30.03,North,355,5.0,20.0,58,0.00,,,0.00,,2013-05-01 23:42:00,
2013-05-01 18:52:00,66.0,51.0,30.04,WNW,296,6.0,16.0,58,0.00,,,0.00,,2013-05-01 23:52:00,
2013-05-01 19:01:00,65.0,50.0,30.04,North,5,5.0,17.0,58,0.00,,,0.00,,2013-05-02 00:01:00,
2013-05-01 19:11:00,65.0,50.0,30.04,North,5,5.0,17.0,58,0.00,,,0.00,,2013-05-02 00:11:00,
2013-05-01 19:21:00,64.0,49.0,30.05,NW,320,4.0,19.0,58,0.00,,,0.00,,2013-05-02 00:21:00,
2013-05-01 19:32:00,62.0,47.0,30.06,NW,319,4.0,17.0,59,0.00,,,0.00,,2013-05-02 00:32:00,
2013-05-01 19:41:00,62.0,47.0,30.06,NW,319,4.0,17.0,59,0.00,,,0.00,,2013-05-02 00:41:00,
2013-05-01 19:52:00,60.0,46.0,30.07,NNW,331,8.0,18.0,59,0.00,,,0.00,,2013-05-02 00:52:00,
2013-05-01 20:01:00,59.0,45.0,30.09,North,350,6.0,15.0,60,0.00,,,0.00,,2013-05-02 01:01:00,
2013-05-01 20:11:00,59.0,45.0,30.09,North,350,6.0,15.0,60,0.00,,,0.00,,2013-05-02 01:11:00,
2013-05-01 20:21:00,57.0,44.0,30.10,North,5,8.0,20.0,61,0.00,,,0.00,,2013-05-02 01:21:00,
2013-05-01 20:32:00,55.0,43.0,30.09,NNE,14,8.0,19.0,63,0.00,,,0.00,,2013-05-02 01:32:00,
2013-05-01 20:42:00,55.0,43.0,30.09,NNE,14,8.0,19.0,63,0.00,,,0.00,,2013-05-02 01:42:00,
2013-05-01 20:52:00,54.0,42.0,30.11,NNW,333,5.0,17.0,64,0.00,,,0.00,,2013-05-02 01:52:00,
2013-05-01 21:01:00,53.0,42.0,30.13,NNW,346,6.0,22.0,65,0.00,,,0.00,,2013-05-02 02:01:00,
2013-05-01 21:11:00,53.0,42.0,30.13,NNW,346,6.0,22.0,65,0.00,,,0.00,,2013-05-02 02:11:00,
2013-05-01 21:21:00,51.0,40.0,30.15,NW,311,7.0,14.0,67,0.00,,,0.00,,2013-05-02 02:21:00,
2013-05-01 21:32:00,48.0,40.0,30.16,NW,313,4.0,21.0,74,0.01,,,0.01,,2013-05-02 02:32:00,
2013-05-01 21:42:00,48.0,40.0,30.16,NW,313,4.0,21.0,74,0.01,,,0.01,,2013-05-02 02:42:00,
2013-05-01 21:51:00,48.0,40.0,30.16,NW,313,4.0,21.0,74,0.01,,,0.01,,2013-05-02 02:51:00,
2013-05-01 22:01:00,45.0,40.0,30.16,North,360,4.0,14.0,82,0.04,,,0.04,,2013-05-02 03:01:00,
2013-05-01 22:11:00,45.0,40.0,30.16,North,360,4.0,14.0,82,0.04,,,0.04,,2013-05-02 03:11:00,
2013-05-01 22:22:00,44.0,39.0,30.18,SSE,165,7.0,15.0,83,0.05,,,0.05,,2013-05-02 03:22:00,
2013-05-01 22:32:00,43.0,39.0,30.19,North,5,7.0,17.0,85,0.08,,,0.09,,2013-05-02 03:32:00,
2013-05-01 22:42:00,43.0,39.0,30.19,North,5,7.0,17.0,85,0.08,,,0.09,,2013-05-02 03:42:00,
2013-05-01 22:53:00,42.0,38.0,30.20,North,5,5.0,15.0,87,0.20,,,0.24,,2013-05-02 03:53:00,
2013-05-01 23:03:00,41.0,38.0,30.20,NNE,31,8.0,18.0,88,0.20,,,0.24,,2013-05-02 04:03:00,
2013-05-01 23:12:00,41.0,38.0,30.20,NNE,31,8.0,18.0,88,0.20,,,0.24,,2013-05-02 04:12:00,
2013-05-01 23:23:00,40.0,37.0,30.20,North,360,6.0,21.0,88,0.19,,,0.24,,2013-05-02 04:23:00,
2013-05-01 23:33:00,40.0,37.0,30.21,NNE,18,2.0,15.0,88,0.12,,,0.24,,2013-05-02 04:33:00,
2013-05-01 23:42:00,40.0,37.0,30.21,NNE,18,2.0,15.0,88,0.12,,,0.24,,2013-05-02 04:42:00,
2013-05-01 23:52:00,40.0,37.0,30.21,North,5,4.0,14.0,88,0.06,,,0.30,,2013-05-02 04:52:00,